[[{"header":{"parameterUnit":"m.s-1","parameterCategory":1,"la1":30.2991,"la2":30.254,"lo1":-89.0895,"lo2":-89.0444,"dy":0.0017,"dx":0.0017,"nx":28,"ny":28,"refTime":"2023-09-29T03:00:00:Z","depth":0,"parameterNumber":2,"parameterNumberName":"U-component_of_WINDS"},"data":[0,0,0,0,0,0,0,0,0,0,0,0,0,0,0,0,0,0,0,0,0,0,0,0,0,0,0,0,0,0,0,0,0,0,0,0,0,0,0,0,0,0,0,0,0,0,0,0,0,0,0,0,0,0,0,0,0,0,-3.7788,-3.7789,0,-3.785,-3.7851,-3.7852,-3.7722,-3.7717,-3.7713,-3.7709,-3.7775,-3.7781,-3.7787,0,0,0,0,0,0,0,0,0,0,0,0,0,-3.756,-3.7565,-3.7788,-3.7789,-3.779,-3.785,-3.7851,-3.7852,-3.7722,-3.7717,-3.7712,-3.7707,-3.7774,-3.778,-3.7787,0,0,0,0,0,0,0,0,0,0,0,0,0,-3.7644,-3.7566,-3.7788,-3.7732,-3.7728,-3.785,-3.7851,-3.7852,-3.7723,-3.7717,-3.7711,-3.7705,-3.7771,-3.778,-3.7788,-3.7968,0,0,-3.7814,-3.7818,0,0,0,0,0,0,0,0,-3.764,-3.7653,-3.774,-3.7736,-3.7732,-3.7772,-3.7795,-3.7891,-3.7725,-3.7725,-3.7709,-3.7702,-3.7779,-3.7787,-3.7813,-3.7971,-3.7974,-3.7815,-3.782,-3.7824,-3.7826,0,0,0,0,0,0,0,-3.7634,-3.765,-3.7813,-3.7741,-3.7736,-3.7705,-3.771,-3.7812,-3.7787,-3.7725,-3.7715,-3.7724,-3.7776,-3.7805,-3.7813,-3.7975,-3.7815,-3.7822,-3.7828,-3.7831,-3.8284,-3.8291,0,0,0,0,0,0,-3.7635,-3.7646,-3.7811,-3.7815,-3.7669,-3.7714,-3.772,-3.7765,-3.7786,-3.7783,-3.773,-3.7718,-3.7793,-3.7803,-3.7815,-3.8028,-3.7824,-3.7832,-3.7837,-3.8278,-3.8286,-3.8293,0,0,0,0,0,0,-3.7631,-3.7651,-3.7808,-3.7728,-3.7745,-3.7725,-3.7777,-3.777,-3.7798,-3.779,-3.7785,-3.7764,-3.7789,-3.7803,-3.7931,-3.8028,-3.7836,-3.7843,-3.8269,-3.828,-3.829,-3.8455,0,0,0,0,0,0,-3.7625,-3.765,-3.7718,-3.773,-3.775,-3.7923,-3.7783,-3.7776,-3.7813,-3.7798,-3.782,-3.7817,-3.7785,-3.7919,-3.7939,-3.8036,-3.785,-3.8261,-3.8274,-3.8286,-3.844,-3.8469,-3.8494,0,0,0,0,0,-3.7617,-3.7762,-3.7722,-3.7743,-3.7834,-3.7929,-3.794,-3.7899,-3.7821,-3.789,-3.7884,-3.7817,-3.8014,-3.7933,-3.7955,-3.8056,-3.8254,-3.827,-3.8285,-3.8428,-3.8464,-3.8493,0,0,0,0,0,0,-3.7763,-3.7763,-3.7718,-3.7872,-3.7901,-3.7907,-3.7992,-3.7937,-3.799,-3.7975,-3.7921,-3.7928,-3.8066,-3.8073,-3.7983,-3.8232,-3.8121,-3.8142,-3.8222,-3.8256,-3.8282,-3.8278,-3.7857,0,0,0,0,0,-3.7813,-3.7889,-3.7885,-3.8021,-3.8038,-3.8013,-3.8052,-3.8018,-3.8046,-3.8059,-3.8062,-3.8094,-3.8162,-3.8209,-3.8272,-3.844,-3.8444,-3.852,-3.8547,-3.8569,-3.8589,-3.8679,-3.8714,-3.8344,-3.8344,-3.8344,0,0,-3.7917,-3.7926,-3.7978,-3.805,-3.8069,-3.815,-3.8024,-3.8115,-3.8175,-3.8072,-3.8194,-3.8198,-3.8229,-3.8378,-3.8444,-3.8388,-3.8691,-3.8589,-3.8607,-3.8614,-3.8699,-3.8734,-3.8765,-3.8355,-3.8353,-3.8351,0,0,-3.8149,-3.8163,-3.8278,-3.8299,-3.8329,-3.8311,-3.8339,-3.8353,-3.8351,-3.8472,-3.8397,-3.8467,-3.8587,-3.8613,-3.8641,-3.8883,-3.8823,-3.8904,-3.9046,-3.9135,-3.9164,-3.9189,-3.9277,-3.9309,-3.8923,-3.8924,-3.8924,0,-3.8275,-3.8394,-3.8344,-3.8441,-3.8475,-3.8385,-3.8502,-3.8525,-3.8575,-3.8601,-3.8538,-3.8686,-3.8701,-3.8855,-3.8914,-3.894,-3.8971,-3.8903,-3.9163,-3.9188,-3.9212,-3.9295,-3.9328,-3.8933,-3.8932,-3.8931,-3.893,0,-3.8548,-3.8631,-3.8721,-3.877,-3.8814,-3.8921,-3.8888,-3.8939,-3.8901,-3.889,-3.9014,-3.9028,-3.9093,-3.9126,-3.909,-3.9277,-3.9241,-3.9172,-3.906,-3.9258,-3.9335,-3.9366,-3.8947,-3.8944,-3.8941,-3.8939,0,0,-3.8875,-3.8895,-3.8929,-3.8951,-3.8977,-3.904,-3.9143,-3.9205,-3.925,-3.9287,-3.9372,-3.9475,-3.9411,-3.9444,-3.9409,-3.9487,-3.9679,-3.9408,-3.9408,-3.9459,-3.9887,-3.9941,-3.9979,-3.9639,-3.9645,-3.9649,-3.9885,0,-3.9106,-3.9281,-3.924,-3.9414,-3.9491,-3.9406,-3.9495,-3.9521,-3.9514,-3.9578,-3.957,-3.9644,-3.9553,-3.9572,-3.9645,-3.9641,-3.9765,-3.9623,-3.972,-3.9724,-3.9717,-4.0019,-4.0076,-4.0298,-3.9915,-3.992,-3.9924,0,-3.9399,-3.9446,-3.9628,-3.9642,-3.9672,-3.9753,-3.9807,-3.987,-3.9898,-3.9887,-3.9924,-3.9874,-3.9976,-3.9862,-4.0002,-3.9907,-3.9944,-3.9947,-3.9955,-3.9964,-3.9837,-4.0038,-4.0367,-4.0402,-3.997,-3.9967,-3.9963,0,-3.9621,-3.973,-3.9853,-3.9874,-3.9893,-3.9952,-3.9963,-3.9984,-4.0024,-4.0072,-4.0097,-4.0156,-4.0189,-4.0236,-4.0204,-4.0124,-4.0351,-4.0234,-4.0346,-4.0348,-4.04,-4.0398,-4.0742,-4.0421,-4.042,-4.042,-4.0419,0,-3.9884,-3.9999,-3.9954,-4.003,-4.0156,-4.0107,-4.0234,-4.0235,-4.0255,-4.033,-4.0259,-4.0332,-4.0284,-4.0353,-4.0328,-4.0449,-4.0464,-4.0459,-4.0452,-4.0467,-4.0468,-4.0492,-4.0476,-4.0429,-4.0427,-4.0425,-4.0423,0,-4.0155,-4.0129,-4.0258,-4.0264,-4.0269,-4.0362,-4.0368,-4.0439,-4.0425,-4.0522,-4.0542,-4.0521,-4.0599,-4.057,-4.0653,-4.0636,-4.0792,-4.0763,-4.0783,-4.0776,-4.0891,-4.0881,-4.1264,-4.1313,-4.0959,-4.0963,-4.0965,0,-4.0326,-4.0412,-4.0428,-4.0473,-4.0489,-4.0562,-4.0602,-4.0558,-4.0603,-4.0641,-4.0708,-4.0779,-4.0833,-4.0961,-4.0954,-4.1017,-4.0991,-4.1121,-4.1,-4.1013,-4.0995,-4.0991,-4.1,-4.1146,-4.115,-4.1153,-4.1156,0,-4.0632,-4.0615,-4.0675,-4.0732,-4.0782,-4.0825,-4.0862,-4.0903,-4.086,-4.0914,-4.0992,-4.1034,-4.1118,-4.119,-4.1246,-4.1258,-4.1202,-4.1193,-4.1223,-4.1241,-4.1249,-4.1248,-4.085,-4.1185,-4.1182,-4.118,-4.1179,-4.1178,-4.0859,-4.0932,-4.0955,-4.1025,-4.1048,-4.1083,-4.1151,-4.1145,-4.1209,-4.1273,-4.1243,-4.1334,-4.136,-4.1429,-4.1449,-4.152,-4.1469,-4.1512,-4.1523,-4.1535,-4.1551,-4.1236,-4.153,-4.1529,-4.1528,-4.1527,-4.1527,0,-4.1163,-4.1173,-4.1238,-4.1291,-4.1347,-4.1286,-4.1324,-4.1375,-4.1455,-4.1483,-4.1538,-4.1628,-4.1697,-4.1696,-4.176,-4.1817,-4.1793,-4.1836,-4.1832,-4.1836,-4.1591,-4.156,-4.1855,-4.1855,-4.1855,-4.1855,-4.1854,-4.1854,-4.1328,-4.1449,-4.1434,-4.1566,-4.1575,-4.1663,-4.1689,-4.1722,-4.1745,-4.1848,-4.1905,-4.1903,-4.192,-4.1985,-4.2047,-4.2044,-4.2072,-4.2126,-4.2114,-4.1886,-4.1853,-4.1822,-4.1793,-4.2132,-4.2132,-4.2353,-4.2356,-4.2357]},{"header":{"parameterUnit":"m.s-1","parameterCategory":1,"la1":30.2991,"la2":30.254,"lo1":-89.0895,"lo2":-89.0444,"dy":0.0017,"dx":0.0017,"nx":28,"ny":28,"refTime":"2023-09-29T03:00:00:Z","depth":0,"parameterNumber":3,"parameterNumberName":"V-component_of_WINDS"},"data":[0,0,0,0,0,0,0,0,0,0,0,0,0,0,0,0,0,0,0,0,0,0,0,0,0,0,0,0,0,0,0,0,0,0,0,0,0,0,0,0,0,0,0,0,0,0,0,0,0,0,0,0,0,0,0,0,0,0,-3.6665,-3.6665,0,-3.6681,-3.6681,-3.6681,-3.6635,-3.6634,-3.6632,-3.6631,-3.6646,-3.6647,-3.6649,0,0,0,0,0,0,0,0,0,0,0,0,0,-3.6593,-3.6595,-3.6665,-3.6665,-3.6666,-3.6681,-3.6681,-3.6681,-3.6636,-3.6634,-3.6632,-3.663,-3.6645,-3.6647,-3.6649,0,0,0,0,0,0,0,0,0,0,0,0,0,-3.6618,-3.6595,-3.6665,-3.6645,-3.6643,-3.6681,-3.6681,-3.6681,-3.6636,-3.6634,-3.6632,-3.663,-3.6644,-3.6647,-3.6649,-3.6707,0,0,-3.6657,-3.6658,0,0,0,0,0,0,0,0,-3.6617,-3.6621,-3.6647,-3.6646,-3.6644,-3.6654,-3.6661,-3.669,-3.6636,-3.6639,-3.6631,-3.6629,-3.665,-3.6652,-3.6659,-3.6708,-3.6708,-3.6657,-3.6659,-3.666,-3.6661,0,0,0,0,0,0,0,-3.6615,-3.662,-3.6671,-3.6648,-3.6646,-3.6634,-3.6635,-3.6666,-3.6656,-3.6638,-3.6635,-3.6637,-3.6649,-3.6657,-3.6659,-3.6709,-3.6657,-3.666,-3.6661,-3.6662,-3.6803,-3.6805,0,0,0,0,0,0,-3.6616,-3.6619,-3.6671,-3.6672,-3.6625,-3.6637,-3.6638,-3.6653,-3.6655,-3.6654,-3.6639,-3.6635,-3.6654,-3.6657,-3.666,-3.6726,-3.666,-3.6662,-3.6664,-3.6801,-3.6803,-3.6806,0,0,0,0,0,0,-3.6615,-3.6621,-3.667,-3.6644,-3.665,-3.664,-3.6657,-3.6654,-3.6663,-3.6656,-3.6654,-3.665,-3.6652,-3.6656,-3.6695,-3.6726,-3.6663,-3.6666,-3.6798,-3.6802,-3.6805,-3.686,0,0,0,0,0,0,-3.6613,-3.6621,-3.6644,-3.6645,-3.6651,-3.6706,-3.6659,-3.6656,-3.6667,-3.6662,-3.6666,-3.6664,-3.6651,-3.6692,-3.6698,-3.6728,-3.6668,-3.6795,-3.68,-3.6804,-3.6855,-3.6865,-3.6873,0,0,0,0,0,-3.6611,-3.6659,-3.6645,-3.6652,-3.6679,-3.6708,-3.6712,-3.6696,-3.667,-3.6692,-3.6688,-3.6664,-3.6722,-3.6696,-3.6703,-3.6734,-3.6793,-3.6798,-3.6803,-3.6852,-3.6863,-3.6873,0,0,0,0,0,0,-3.6661,-3.6659,-3.6644,-3.6694,-3.6702,-3.6701,-3.6728,-3.6709,-3.6724,-3.6719,-3.6698,-3.6699,-3.6741,-3.6742,-3.6713,-3.6789,-3.6753,-3.676,-3.6787,-3.6798,-3.6807,-3.6805,-3.667,0,0,0,0,0,-3.6678,-3.6703,-3.6699,-3.6744,-3.6748,-3.6738,-3.675,-3.6737,-3.6744,-3.6747,-3.6745,-3.6752,-3.6772,-3.6785,-3.6803,-3.6856,-3.6855,-3.688,-3.6889,-3.6896,-3.6902,-3.6928,-3.6939,-3.6822,-3.6822,-3.6822,0,0,-3.6714,-3.6716,-3.6732,-3.6754,-3.6758,-3.6783,-3.6741,-3.6769,-3.6787,-3.6751,-3.6787,-3.6787,-3.6793,-3.6839,-3.6859,-3.684,-3.6934,-3.6903,-3.6909,-3.691,-3.6934,-3.6945,-3.6955,-3.6826,-3.6825,-3.6825,0,0,-3.6791,-3.6795,-3.6832,-3.6837,-3.6844,-3.6837,-3.6846,-3.6847,-3.6845,-3.6881,-3.6855,-3.6875,-3.691,-3.6915,-3.6922,-3.6999,-3.6978,-3.7006,-3.7051,-3.7077,-3.7086,-3.7094,-3.712,-3.713,-3.7012,-3.7012,-3.7012,0,-3.6834,-3.687,-3.6853,-3.6883,-3.6892,-3.6861,-3.6897,-3.6903,-3.6916,-3.6923,-3.6902,-3.6944,-3.6946,-3.6992,-3.701,-3.7018,-3.7026,-3.7005,-3.7086,-3.7094,-3.7101,-3.7126,-3.7136,-3.7015,-3.7015,-3.7014,-3.7014,0,-3.6922,-3.6948,-3.6976,-3.6989,-3.7002,-3.7035,-3.7022,-3.7037,-3.7022,-3.7016,-3.7053,-3.7055,-3.7071,-3.7081,-3.7068,-3.7125,-3.7113,-3.709,-3.7052,-3.7116,-3.7138,-3.7148,-3.702,-3.7019,-3.7018,-3.7017,0,0,-3.7032,-3.7033,-3.7044,-3.7049,-3.7054,-3.7073,-3.7104,-3.712,-3.7133,-3.7142,-3.7166,-3.7196,-3.7174,-3.7182,-3.7169,-3.7192,-3.7251,-3.7165,-3.7165,-3.718,-3.7311,-3.7328,-3.7339,-3.7237,-3.7238,-3.724,-3.731,0,-3.7106,-3.7159,-3.7144,-3.7196,-3.7219,-3.7189,-3.7215,-3.7221,-3.7216,-3.7234,-3.7228,-3.7248,-3.7219,-3.7223,-3.7244,-3.7239,-3.7277,-3.7234,-3.7258,-3.7259,-3.7256,-3.7351,-3.7369,-3.7436,-3.7319,-3.7321,-3.7322,0,-3.72,-3.7213,-3.7268,-3.7267,-3.7276,-3.73,-3.7313,-3.7331,-3.7336,-3.7331,-3.7339,-3.7321,-3.735,-3.7314,-3.7352,-3.7324,-3.7332,-3.7331,-3.7333,-3.7334,-3.7293,-3.7353,-3.7457,-3.7466,-3.7336,-3.7335,-3.7334,0,-3.7273,-3.7304,-3.734,-3.7345,-3.7346,-3.7363,-3.7364,-3.7367,-3.7377,-3.7389,-3.7395,-3.741,-3.7417,-3.7429,-3.7414,-3.7389,-3.7455,-3.7417,-3.745,-3.745,-3.7464,-3.7463,-3.7569,-3.7472,-3.7472,-3.7472,-3.7472,0,-3.7357,-3.7391,-3.7372,-3.7394,-3.7431,-3.7413,-3.745,-3.7448,-3.745,-3.7471,-3.7446,-3.7466,-3.7446,-3.7464,-3.7453,-3.7486,-3.749,-3.7485,-3.7482,-3.7487,-3.7487,-3.7492,-3.7486,-3.7475,-3.7474,-3.7474,-3.7473,0,-3.7444,-3.7433,-3.747,-3.7467,-3.7467,-3.7495,-3.7492,-3.7512,-3.7505,-3.7531,-3.7536,-3.7525,-3.7544,-3.7531,-3.7551,-3.7543,-3.7586,-3.7577,-3.7584,-3.7581,-3.7614,-3.7611,-3.7725,-3.7739,-3.7635,-3.7636,-3.7636,0,-3.7498,-3.7523,-3.7523,-3.7535,-3.7537,-3.7557,-3.7567,-3.755,-3.7561,-3.7568,-3.7587,-3.7604,-3.7616,-3.7648,-3.7642,-3.7656,-3.7646,-3.7685,-3.7648,-3.7652,-3.7645,-3.7643,-3.7645,-3.7693,-3.7694,-3.7695,-3.7696,0,-3.7594,-3.7587,-3.7602,-3.7616,-3.7628,-3.7638,-3.7646,-3.7657,-3.7639,-3.7653,-3.7672,-3.7682,-3.7701,-3.7718,-3.773,-3.773,-3.771,-3.7708,-3.7715,-3.772,-3.7723,-3.7721,-3.7603,-3.7705,-3.7704,-3.7703,-3.7703,-3.7702,-3.7665,-3.7685,-3.7688,-3.7706,-3.7709,-3.7717,-3.7735,-3.773,-3.7746,-3.776,-3.7749,-3.7771,-3.7774,-3.7787,-3.779,-3.7807,-3.7791,-3.7803,-3.7806,-3.7809,-3.7813,-3.7722,-3.7809,-3.7809,-3.7809,-3.7809,-3.7808,0,-3.7758,-3.7758,-3.7775,-3.7786,-3.7799,-3.7779,-3.7786,-3.7799,-3.7819,-3.7823,-3.7836,-3.7857,-3.7873,-3.7868,-3.7882,-3.7896,-3.7887,-3.79,-3.7898,-3.7898,-3.7827,-3.7818,-3.7907,-3.7907,-3.7907,-3.7907,-3.7907,-3.7907,-3.7809,-3.7842,-3.7835,-3.7869,-3.7868,-3.789,-3.7896,-3.7902,-3.7905,-3.793,-3.7943,-3.7939,-3.7939,-3.7952,-3.7966,-3.7964,-3.7969,-3.7986,-3.798,-3.7913,-3.7904,-3.7894,-3.7886,-3.7987,-3.7988,-3.805,-3.805,-3.8051]}]]